Location: ?????????
(38.0736°N, 23.2119°E)
Time: 02:52:21
(UTC+00:00)

Cosmos 2322 Rocket - Visible Passes

Search period start: 19 July 2024 00:00
Search period end: 29 July 2024 00:00
Orbit: 831 x 851 km, 71.0° (Epoch: 18 July)

Date Brightness Start Highest point End Pass type
(mag) Time Alt. Az. Time Alt. Az. Time Alt. Az.
20 Jul 2.8 02:46:35 10° S 02:52:05 58° ESE 02:57:39 10° NNE visible
21 Jul 2.9 02:31:23 10° S 02:36:50 54° ESE 02:42:22 10° NNE visible
22 Jul 3.0 02:16:11 10° S 02:21:36 51° ESE 02:27:04 10° NNE visible
23 Jul 3.0 02:00:59 10° S 02:06:21 48° ESE 02:11:47 10° NE visible
24 Jul 3.1 01:46:01 11° S 01:51:07 45° ESE 01:56:30 10° NE visible
25 Jul 3.2 01:31:37 15° S 01:35:52 42° ESE 01:41:12 10° NE visible
26 Jul 3.2 01:17:10 19° SSE 01:20:38 40° ESE 01:25:53 10° NE visible
27 Jul 3.3 01:02:41 24° SSE 01:05:24 37° ESE 01:10:35 10° NE visible
27 Jul 3.3 02:44:36 10° WSW 02:49:27 29° WNW 02:54:22 10° N visible
28 Jul 3.3 00:48:09 27° SE 00:50:10 35° ESE 00:55:16 10° NE visible
28 Jul 3.2 02:29:57 13° WSW 02:34:10 31° WNW 02:39:09 10° N visible
